Powrót do katalogu

FLOCK 4G 15

AktywnyNaukaSSO
NORAD 62678·PAYLOAD·🇺🇸 United States

Wystrzelony Jan 14, 2025 z Vandenberg Space Force Base

Loading…

Następne Przeloty (najbliższe 24 godziny)

TLE

ŚwieżeSource: CelesTrak SupGP

Epoka: Sep 14, 2026, 06:45 UTC

1 62678C 25009BX  26257.28136574  .00008491  00000+0  28374-3 0  2578
2 62678  97.3966 338.8267 0004592  21.2893 247.5661 15.31056053    14

Śledź FLOCK 4G 15 w czasie rzeczywistym z AllMySat

Download on the App Store